Retour au catalogue

SL-8 DEB

ActifLEO
NORAD 21211·DEBRIS·🇷🇺 Russia

Lancé Feb 12, 1991 depuis Plesetsk Cosmodrome

Loading…

Prochains Passages (prochaines 24 heures)

TLE

FraisSource: Space-Track

Époque: Sep 13, 2026, 16:31 UTC

1 21211U 91009BE  26256.68839914  .00000223  00000-0  21439-2 0  9993
2 21211  74.0974 157.2453 0199788 104.4269 286.7696 12.19853602578028

Suivez SL-8 DEB en temps réel avec AllMySat

Download on the App Store